Resultado: 01/10/2017 - 2º CORRIDA DOS BOMBEIROS DE APUCARANA - PR-2

Posição Nome Tempo
1 LUCAS SALOMÃO 386 00:16:12
2 RODRIGO ALVES DE OLIVEIRA 391 00:16:52
3 WESLER PINHEIRO SOUZA 383 00:17:16
4 RONALDO WILLIAN DE PAIVA 367 00:17:42
5 GABRIEL J.DE A. DE CAMPOS 124 00:17:51
6 REGINALDO DE BRITO 72 00:17:56
7 ALEXANDRE PEREIRA DA SILVA 287 00:18:24
8 SERGIO CALIXTO DOS ANJOS 101 00:18:25
9 TIAGO CHAGAS 157 00:18:25
10 JOÃO MARCO DOS SANTOS 385 00:18:27
11 LUIZ HENRIQUE PEREIRA 198 00:18:32
12 EVANDRO SABINO DA SILVA 315 00:18:33
13 EUSEBIO JOSE GOMES 133 00:18:36
14 RONDINELI GOUVEIA 130 00:18:41
15 VILSON JOSE ALVES JUNIOR 392 00:18:41
16 OSMAIR ALVES COSTA 355 00:18:46
17 ANTONIO M. DOS SANTOS 267 00:18:50
18 JOSEMAR KURUNCZI 268 00:18:57
19 CLAUDIO JOSE MENDES 265 00:18:59
20 ARLIVILINO NEVES 106 00:19:04
21 BRUNO CHAVES 76 00:19:10
22 OSEAIS SANTOS DA SILVA 105 00:19:10
23 VINICIUS ALBERTO ADORNO VASILIO 258 00:19:14
24 ANDRÉ LUIZ BANAK DA COSTA 46 00:19:15
25 JOAO VITOR DE JESUS LANDGRAFF 273 00:19:20
26 GUILHERME ROBERTO M. RIBEIRO 40 00:19:21
27 MATHEUS MARTINS DA SILVA 96 00:19:23
28 ROBERTO CARLOS FRANCISCO DE SOUZA 363 00:19:28
29 LUIS CLAUDIO DE FREITAS 173 00:19:31
30 ALESHON L DIEGO MAKOHIN 13 00:19:33
31 OZIRES ANTUNES PEREIRA 139 00:19:38
32 RODRIGO DE MELLO DE FREITAS 395 00:19:41
33 PAULO CESAR GOMES 358 00:19:42
34 RAFAEL FRANCISCO FERREIRA 399 00:19:45
35 RAFAEL MENDES WECKVERTH 86 00:19:47
36 CÍCERO FURQUIM DE CAMRGO 27 00:19:49
37 WAGNER RUFINO DOS SANTOS 73 00:20:07
38 PAULO SERGIO DA SILVA 34 00:20:09
39 VICTOR HUGO SOBREIRA DE FARIA 3 00:20:12
40 ELEANDO ROSAS 312 00:20:13
41 EDUARDO FERNANDES DOS SANTOS 35 00:20:18
42 CRISTIANO TOSSANI  251 00:20:18
43 ANDERSON O. RAFAEL 132 00:20:21
44 MARVIN FLORIANO DA ROSA PEREIRA 45 00:20:22
45 VALDEMIR CEZARIO MASTRO 377 00:20:31
46 BRUNO HENRIQUE LOPES DA COSTA 295 00:20:32
47 FERNANDO R. ROSA 263 00:20:35
48 JOSE CARLOS RAMOS 397 00:20:37
49 ANTONIO ANDRADE WERNECK 291 00:20:43
50 JOSE DE ALMEIDA 112 00:20:45
51 OSMAR ALVES DA SILVA 356 00:20:47
52 FERNANDO HENRIQUE BRESCIANI 321 00:20:53
53 CARLOS CESAR DOS SANTOS 266 00:20:54
54 MATHEUS ARAUJO 179 00:21:05
55 JÚLIO AUGUSTO GERELUS 334 00:21:19
56 VALDECIR A. MARTINS 70 00:21:20
57 ALVARO CEOLIM WEISS 22 00:21:21
58 DIONATHAN FERNANDO MENEZES 44 00:21:26
59 CESAR PAULINHO DA SILVA NOBREGA 309 00:21:34
60 LUIZ CARLOS DE BRITO 150 00:21:35
61 MOISANIEL ALEX VENERIO 351 00:21:35
62 FABIANO SANTANA DE AQUINO 319 00:21:39
63 EVERTON WILLIAM DE SOUZA 162 00:21:43
64 FABIANO BATISTA SILVERIO 195 00:21:44
65 MARCOS ANTONIO DE BARROS 177 00:21:46
66 ELISON RIBEIRO DE BRITO 250 00:21:52
67 MARCIO LEANDRO GERELUS 344 00:21:52
68 OSMAR NATALICIO SANTOS 172 00:22:07
69 MATHEUS SANTOS ARAUJO 349 00:22:07
70 EZEQUIEL GRANADO 317 00:22:16
71 JEAN VINÍCIUS MORGADO 41 00:22:17
72 LEONARDO GALDINO CABRAL 225 00:22:26
73 VALMIR BATISTA DA SILVA 379 00:22:27
74 ACRINEU RIBEIRO SANTOS 92 00:22:29
75 ERCILIO LUCAS NETO 216 00:22:32
76 JOHNNI RUDIMAR PORTELLA 332 00:22:32
77 ADEMIR DONIZETI DE OLIVEIRA 282 00:22:36
78 EDEVALDO ALEXANDRE OLIVEIRA PEREIRA 308 00:22:38
79 ADEMIR BOBIG 138 00:22:41
80 MATHEUS DE GOES MACHADO 43 00:22:46
81 CELSO ROBERTO FLORES 300 00:22:46
82 JOSÉ ROBERTO ALVES 333 00:22:46
83 NILSON BERNARDES 233 00:22:49
84 PEDRO VALDIR VILLAS BOAS 234 00:22:57
85 GUILHERME MONTEIRO MORAIS 245 00:23:06
86 EDISON AMÉRICO SANGA 310 00:23:10
87 JOSE ROBERTO LEANDRO DA SILVA 279 00:23:11
88 DAILTON DA S. FERREIRA 264 00:23:22
89 DELCIO BERTASSO JUNIOR 200 00:23:25
90 ADENILSON CLEDSON RODRIGUES 283 00:23:33
91 CARLOS ALBERTO VELOZO 78 00:23:37
92 THIAGO ALBERTO SALVIATTO 376 00:23:38
93 JOAO PAULO DAMETTO 11 00:23:39
94 MURILO DOS SANTOS SILVEIRA 352 00:23:39
95 ADMILSON LOPES VIEIRA 285 00:23:40
96 FABIANO PINHEIRO 318 00:23:40
97 TASSIO CORREIA DURVAL DA SILVA 248 00:23:43
98 EDINANDO DE FREITAS 384 00:23:43
99 JACIRTON RIBEIRO 29 00:23:53
100 MARCELO ALEXANDRE DE LIMA MARIANO 230 00:23:55
101 CARLOS WILLIAM DA SILVA FRANCISCO 33 00:23:59
102 APARECIDO FRANCO ELIAS 212 00:23:59
103 HENRIQUE MINORU TUDA 94 00:24:00
104 LEONARDO GABRIEL KUHN 163 00:24:10
105 WILSON VIEIRA DA MOTA JUNIOR 36 00:24:16
106 WALDELI ANDRADE WERNEK 382 00:24:19
107 CARLOS EDUARDO DE FREITAS 104 00:24:22
108 EMIDIO FERREIRA LIMA 123 00:24:22
109 VALDENIR LEITE 378 00:24:25
110 ALLAN JUNIOR LOPES 42 00:24:27
111 ANDRE LUIZ M. RODRIGUES 68 00:24:27
112 EDGAR J. DE OLIVEIRA 135 00:24:29
113 MARCIO FELIPE DO CARMO 396 00:24:29
114 JURANDIR CERONTO 174 00:24:31
115 RAFAEL R. PEREIRA 67 00:24:32
116 PAULO FRANCISCO DE SOUZA 189 00:24:37
117 ROMEU MOTA DA SILVA 115 00:24:40
118 JOAQUIM FIRMINO DA CRUZ 223 00:24:41
119 LAZARO MASSAHARU YASUDA 336 00:24:41
120 JOSE MARCIO GARCIA SOBRINHO 224 00:24:46
121  RONALDO ADRIANO CANDIDO 255 00:24:55
122 OSVALDO FERREIRA DE MELLO JUNIOR 357 00:24:56
123 ANTONIO DOS S. COIMBRA 121 00:24:58
124 RICARDO KOPCZYNSKI 128 00:25:03
125 OSMAIR JOSE DA SILVA 151 00:25:03
126 ARMANDO CESAR COCHAK 26 00:25:08
127 LUIS GUILHERME G. BARRETO 187 00:25:14
128 MARCOS VINICIUS DA SILVA 30 00:25:29
129 VALDECIR DE SOUZA PASCHOAL 147 00:25:29
130 HENRIQUE FREIRE DA CRUZ 219 00:25:30
131 CARLOS RODRIGO TEIXEIRA 298 00:25:33
132 SERGIO CORRÊA 107 00:25:43
133 ANTONIO INACIO CARNEIRO 161 00:25:44
134 FERNANDO GARCIA BONILHA 167 00:25:47
135 PEDRO IGNATOWICZ JUNIOR 359 00:25:47
136 RENAN SABINO DE OLIVEIRA 66 00:25:56
137 MARCIO PEREIRA DE FREITAS 21 00:26:07
138 JAIR RICARDO CHIOVETTI 19 00:26:12
139 ALESSANDRO CARDOSO 169 00:26:14
140 CELSO RICARDI 299 00:26:21
141 ISRAEL ANTONIO DE SOUZA LOPES 221 00:26:27
142 UEMERSON DE PAULA SILVA 145 00:26:30
143 LUCAS MICHAEL C. DE OLIVEIRA 38 00:26:36
144 LUCIANO TARCIZIO ROMAO 1 00:26:40
145 WAGNER DE CAMPOS MOREIRA 239 00:26:55
146 ELIANE YUKARI ISHII 313 00:26:56
147 SILVIO BORGES 148 00:26:57
148 ANTONIO ROSALINO CAMARGO 158 00:26:58
149 ALBER CLEITON SOARES 387 00:27:13
150  LEANDRO CESAR FABENI YOSHII 254 00:27:19
151 BRUNO LEONARDO MENDES 6 00:27:22
152 RUBENS ADEMIR DE QUADROS 79 00:27:26
153 ARYAGNER JUAN FAGUNDES MOREIRA 213 00:27:29
154 BRUNO WILLIAM DE SOUZA 296 00:27:29
155 CELIO PISSINATTI 243 00:27:30
156 LUIZ OTAVIO G. GUIMARÃES 197 00:27:34
157 LUIZ ANTONIO GUIMARÃES 137 00:27:36
158  ADILSON SOARES 252 00:27:39
159 ROBERTO GERALDO COELHO 25 00:27:40
160 ITAVIR DOS SANTOS JUNIOR 327 00:27:48
161 MURILO GODAS DO NASCIMENTO 17 00:27:55
162 OSWALDO A. ZARDO 155 00:27:55
163 AIRTON DOMINGUES 286 00:27:56
164 ISMAEL DOS SANTOS LIBERATO 246 00:28:01
165 WELLINGTON DE PAULA 165 00:28:08
166 EVERTON LUIZ PACHECO ALVES 15 00:28:14
167 LOURIVAL ANTONIO DOS SANTOS 207 00:28:14
168 ELUAN RODRIGUES DE LIMA 54 00:28:31
169 ANDERSON JOVEM DE MELO                             249 00:28:44
170 JOÃO DIAS 152 00:28:51